Location: Unspecified
(0.0000°N, 0.0000°E)
Time: 08:51:46
(UTC+01:00)

Daily predictions for brighter satellites

Satellite Brightness Start Highest point End
(mag) Time Altitude Azimuth Time Altitude Azimuth Time Altitude Azimuth
Centaur AC-146 4.0 18:24:37 10° WNW 18:28:39 77° SSW 19:00:23 10° ESE
Centaur AC-146 4.0 18:24:36 10° WNW 18:28:39 77° SSW 19:00:23 10° ESE
Centaur AC-146 4.0 18:24:36 10° WNW 18:28:40 77° SSW 19:00:23 10° ESE
ATLAS 5 CENTAUR R/B 3.8 18:44:52 10° WNW 18:49:44 34° N 19:09:06 10° ENE
COSMO-SKYMED 1 4.4 19:10:50 10° NNW 19:14:44 33° WNW 19:18:39 10° SW
CORIOLIS 4.4 19:10:25 10° S 19:15:52 79° WSW 19:21:16 10° NNW
YAOGAN 1 3.5 19:13:38 10° S 19:17:53 55° WSW 19:22:06 10° NNW
Cosmos 1743 3.3 19:15:12 10° NNE 19:18:43 35° E 19:22:15 10° SSE
Ariane H10+ 1.9 19:18:29 10° WSW 19:20:22 30° S 19:21:43 10° ESE
Cosmos 1500 3.6 19:17:34 10° N 19:21:24 70° W 19:25:17 10° S
Ariane H10 2.9 19:14:17 10° W 19:22:22 68° N 19:25:26 10° E
Meteor 2-21 Rocket 4.5 19:16:36 10° N 19:22:38 62° E 19:28:37 10° SSE
Cosmos 2251 Rocket 4.3 19:19:02 10° NNW 19:24:13 59° WSW 19:29:23 10° S
Cosmos 1975 4.2 19:22:30 10° NNW 19:26:18 42° W 19:30:06 10° SSW
Intercosmos 25 3.9 19:23:47 10° N 19:27:46 66° E 19:34:03 10° S
ARIANE 3 DEB 4.2 19:24:23 10° WSW 19:29:48 35° S 19:32:38 10° ESE
ARIANE DEB (SPELDA) 1.5 19:29:59 10° W 19:32:53 64° N 19:34:50 14° E
BREEZE-M DEB 2.3 19:31:21 10° SSW 19:33:32 66° SE 19:37:55 10° NE
ARIANE 44LP R/B 1.8 19:31:11 10° W 19:35:19 58° N 19:36:50 17° ENE
Helios 1B rocket 2.9 19:31:36 10° NNE 19:35:27 40° ESE 19:39:19 10° S
Haruka 3.7 19:35:08 10° W 19:38:15 30° NNW 19:41:49 10° NE
ALOS 4.2 19:40:27 10° ESE 19:40:59 11° E 19:40:59 11° E
Cosmos 1420 Rocket 4.1 19:39:41 10° S 19:44:54 59° ESE 19:50:07 10° NNE
Cosmos 1943 Rocket 2.7 19:40:43 10° S 19:45:58 40° ESE 19:50:07 15° NE
Hubble Space Telescope 0.8 19:42:58 10° NW 19:47:02 58° NNE 19:50:32 14° ESE
deb Ariane 4.0 19:31:56 10° W 19:47:21 87° S 19:50:26 15° E
BLOCK DM-SL R/B 4.1 19:27:15 10° W 19:47:51 89° SSE 19:51:43 16° E
FREGAT/IRIS 3.3 19:47:25 10° SE 19:50:15 32° E 19:51:45 21° NNE
METEOR-M 4.4 19:49:35 10° SSE 19:54:40 45° ENE 19:59:44 10° N
Cosmos 405 Rocket 4.4 19:51:58 10° SE 19:54:34 18° E 19:54:34 18° E
Cosmos 1339 Rocket 4.4 19:50:10 10° S 19:56:21 84° E 20:02:25 10° N
Resurs 01 Rocket 2.8 19:53:52 10° SE 19:56:53 22° E 19:56:53 22° E
ARIANE 5 R/B 2.5 19:47:28 10° W 20:01:45 62° S 20:03:50 23° ESE
ATLAS 2AS CENTAUR R/B 3.2 19:55:42 10° NNW 20:02:57 63° WSW 20:09:31 10° SSE
Cosmos 2228 4.3 20:05:31 23° ESE 20:05:31 23° ESE 20:08:10 10° SE
Cosmos 1900 4.4 20:03:31 10° S 20:08:25 57° ESE 20:10:33 32° NE
Cosmos 1934 Rocket 4.0 20:03:04 10° N 20:09:22 89° E 20:15:46 10° S
Cosmos 1626 Rocket 3.5 20:05:48 10° S 20:10:14 87° E 20:13:41 17° N
DELTA 2 R/B (1) 4.0 20:08:29 10° WSW 20:13:56 55° NW 20:16:50 27° NNE
BREEZE-M DEB (TANK) 4.3 20:10:58 10° SSW 20:15:05 58° ESE 20:20:30 27° NE
SWIFT 3.3 20:15:45 10° SW 20:19:37 35° SSE 20:20:30 31° SE
Centaur Rocket 4.2 20:18:05 10° SSW 20:18:57 15° S 20:18:57 15° S
Cosmos 1066 Rocket 4.1 20:14:12 10° S 20:19:52 82° E 20:23:37 21° N
SJ-6B 3.3 20:18:51 10° S 20:22:38 57° W 20:26:19 10° NNW
Cosmos 1726 Rocket 3.9 20:24:09 10° NNW 20:28:33 65° W 20:32:58 10° S
Cosmos 1833 Rocket 2.6 20:25:38 10° NNW 20:31:15 90° E 20:36:52 10° SSE
Intelsat 5-1 Rocket 4.5 20:27:56 10° SW 20:34:13 53° SE 20:41:51 30° E
Cosmos 2082 Rocket 2.6 20:30:13 10° NNW 20:35:50 65° WSW 20:41:30 10° S
Meteor 2-15 4.4 20:31:30 10° S 20:37:38 85° W 20:41:07 28° N
Cosmos 1110 Rocket 4.3 20:32:46 10° S 20:37:30 50° ESE 20:37:30 50° ESE
Cosmos 1153 Rocket 4.3 20:37:49 38° NNE 20:40:12 70° E 20:46:20 10° S
H-2A ROCKET BODY 3.5 20:00:01 10° WSW 20:40:54 78° NW 20:44:00 43° NE
Cosmos 2123 Rocket 4.3 20:36:17 10° SSE 20:41:48 46° ESE 20:41:48 46° ESE
Ariane H10-3 4.0 20:39:46 10° WNW 20:43:26 46° NNE 20:43:55 45° NNE
Ariane H10 2.6 20:36:05 10° W 20:48:14 70° S 20:48:36 66° SE
SYLDA PLATFORM 4.2 20:49:37 10° WSW 20:52:33 54° SSW 20:52:33 54° SSW
Lacrosse 4 Rocket 3.1 21:05:56 10° SW 21:08:50 35° WSW 21:08:50 35° WSW
Ariane H10-3 3.8 21:14:05 10° WSW 21:15:36 21° WSW 21:15:36 21° WSW
ARIANE 5 DEB (SYLDA) 4.1 21:06:11 10° W 21:17:44 53° NW 21:17:44 53° NW
ALOS 3.9 21:15:24 10° SSW 21:19:31 31° WSW 21:19:31 31° WSW
Milstar 3 3.7 21:11:37 10° WSW 21:20:00 87° NNW 21:22:28 64° NE
Hubble Space Telescope 3.7 21:25:02 10° W 21:26:01 15° WSW 21:26:01 15° WSW
Resurs 01 Rocket 4.4 21:30:58 10° SW 21:33:31 15° WSW 21:34:28 14° W
BLOCK DM-SL R/B 4.2 21:23:25 10° W 21:32:44 61° W 21:32:44 61° W
